Regional Weather Roundup
Issued by NWS

Home | Current Version | Previous Version | Graphics & Text | Print | Product List | Glossary On
Versions: 1 2 3 4 5 6 7 8 9 10 11 12 13 14 15 16 17 18 19 20 21 22 23 24 25 26 27 28 29 30 31 32 33 34 35 36 37 38 39 40 41 42 43 44 45 46 47 48 49 50
000
ASUS43 KBIS 242102
RWRND

NORTH DAKOTA REGIONAL WEATHER ROUNDUP
NATIONAL WEATHER SERVICE BISMARCK ND
300 PM CST FRI FEB 24 2017

NOTE: "FAIR" INDICATES FEW OR NO CLOUDS BELOW 12,000 FEET WITH NO
SIGNIFICANT WEATHER AND/OR OBSTRUCTIONS TO VISIBILITY.


NDZ001>003-009>011-017-242200-
NORTHWEST NORTH DAKOTA

CITY           SKY/WX    TMP DP  RH WIND       PRES   REMARKS
WILLISTON      CLOUDY    27  17  66 SW10      30.11F WCI  17
MINOT          FAIR      30  16  56 N6        30.10F
$$

NDZ018>021-031>035-040>046-242200-
SOUTHWEST NORTH DAKOTA

CITY           SKY/WX    TMP DP  RH WIND       PRES   REMARKS
BISMARCK       FAIR      31  17  56 NW13      30.13S
DICKINSON      CLOUDY    23  12  62 SW5       30.07F WCI  17
GARRISON         N/A     28  16  60 W12       30.10F WCI  18
HETTINGER ARPT MOSUNNY   28  12  51 CALM      30.08F
$$

NDZ004>008-012>016-024-026-027-054-242200-
NORTHEAST NORTH DAKOTA

CITY           SKY/WX    TMP DP  RH WIND       PRES   REMARKS
GRAND FORKS    PTSUNNY   21  10  62 N17       30.12S WCI   7
GRND FRKS AFB  FLURRIES  22  12  66 N15       30.12S WCI   9
DEVILS LAKE    PTSUNNY   20  14  77 N13       30.11S WCI   7
$$

NDZ022-023-025-028>030-036>039-047>053-242200-
SOUTHEAST NORTH DAKOTA

CITY           SKY/WX    TMP DP  RH WIND       PRES   REMARKS
FARGO          PTSUNNY   25  16  68 N25       30.07S WCI   9
JAMESTOWN      PTSUNNY   25  17  72 NW21      30.07S WCI  11
$$





USA.gov is the U.S. government's official web portal to all federal, state and local government web resources and services.